Weather History for Bangor, ME

Change the Weather History Date:

Tuesday, March 5, 2013

  Actual Average Record
Temperature  
Mean Temperature 37 °F 26 °F  
Max Temperature 40 °F 36 °F 55 °F (1934)
Min Temperature 33 °F 16 °F -9 °F (1948)
Degree Days  
Heating Degree Days 28 39  
Month to date heating degree days 153 197  
Since 1 July heating degree days 5530 5843  
Cooling Degree Days 0 0  
Month to date cooling degree days 0 0  
Year to date cooling degree days 0 0  
Moisture  
Dew Point 32 °F    
Average Humidity 83    
Maximum Humidity 96    
Minimum Humidity 70    
Precipitation  
Precipitation 0.01 in 0.10 in 1.36 in (1929)
Month to date precipitation 0.51 0.48  
Year to date precipitation 3.42 5.89  
Snow  
Snow T in 0.50 in 6.50 in (1972)
Month to date snowfall 3.9 2.3  
Since 1 July snowfall 63.4 53.0  
Snow Depth 4.00 in    
Sea Level Pressure  
Sea Level Pressure 29.96 in    
Wind  
Wind Speed 13 mph (NNE)    
Max Wind Speed 21 mph    
Max Gust Speed 24 mph    
Visibility 10 miles    
Events Rain , Snow    
T = Trace of Precipitation, MM = Missing Value Source: NWS Daily Summary

Daily Weather History Graph

Daily Weather History Graph

Search for Another Location

Airport:

Trip Planner

Search our weather history database for the weather conditions in past years. The results will help you decide how hot, cold, wet, or windy it might be!

Date:

Astronomy

Mar. 05, 2013 Rise Set
Actual Time 6:05 AM EST 5:28 PM EST
Civil Twilight 5:36 AM EST 5:57 PM EST
Nautical Twilight 5:02 AM EST 6:31 PM EST
Astronomical Twilight 4:28 AM EST 7:05 PM EST
Moon 1:25 AM EST (3/5) 10:53 AM EST (3/5)
Length of Visible Light 12h 21m
Length of Day
11h 23m
Last Quarter, 41% of the Moon is Illuminated
Mar 5
Last Quarter
Mar 11
New
Mar 19
First Quarter
Mar 27
Full
Apr 3
Last Quarter

Hourly Weather History & Observations

Time (EST) Temp. Windchill Dew Point Humidity Pressure Visibility Wind Dir Wind Speed Gust Speed Precip Events Conditions
12:53 AM 33.1 °F 23.4 °F 32.0 °F 96% 29.70 in 9.0 mi North 13.8 mph - 0.00 in Snow Light Snow
2:53 AM 33.1 °F 23.9 °F 32.0 °F 96% 29.75 in 9.0 mi North 12.7 mph - 0.00 in   Overcast
3:11 AM 33.8 °F 24.3 °F 32.0 °F 93% 29.75 in 10.0 mi North 13.8 mph - N/A   Overcast
3:53 AM 33.1 °F 24.4 °F 32.0 °F 96% 29.78 in 10.0 mi North 11.5 mph - N/A   Overcast
4:53 AM 33.1 °F 23.4 °F 30.9 °F 92% 29.81 in 10.0 mi North 13.8 mph - N/A   Overcast
5:23 AM 33.8 °F 24.3 °F 30.2 °F 87% 29.82 in 10.0 mi North 13.8 mph - N/A   Overcast
5:53 AM 33.1 °F 23.9 °F 30.9 °F 92% 29.84 in 10.0 mi North 12.7 mph - N/A   Overcast
6:53 AM 34.0 °F 24.6 °F 30.9 °F 89% 29.87 in 10.0 mi North 13.8 mph - N/A   Overcast
7:01 AM 33.8 °F 24.8 °F 30.2 °F 87% 29.86 in 10.0 mi North 12.7 mph - N/A   Overcast
7:53 AM 33.8 °F 24.8 °F 32.0 °F 93% 29.89 in 10.0 mi North 12.7 mph - N/A   Overcast
8:53 AM 35.1 °F 25.9 °F 32.0 °F 89% 29.91 in 10.0 mi North 13.8 mph - N/A   Overcast
9:12 AM 35.6 °F 26.2 °F 32.0 °F 87% 29.91 in 7.0 mi North 15.0 mph - 0.00 in Snow Light Snow
9:49 AM 35.6 °F 27.1 °F 33.8 °F 93% 29.92 in 10.0 mi North 12.7 mph - 0.00 in   Overcast
9:53 AM 36.0 °F 28.5 °F 33.1 °F 89% 29.93 in 10.0 mi NNE 10.4 mph - 0.00 in   Overcast
10:31 AM 37.4 °F 28.2 °F 32.0 °F 81% 29.93 in 10.0 mi NNE 16.1 mph 24.2 mph N/A   Overcast
10:53 AM 37.0 °F 27.4 °F 32.0 °F 82% 29.94 in 10.0 mi NNE 17.3 mph - N/A   Mostly Cloudy
11:53 AM 39.0 °F 29.9 °F 30.9 °F 73% 29.94 in 10.0 mi NNE 17.3 mph - N/A   Overcast
12:53 PM 39.9 °F 32.1 °F 32.0 °F 73% 29.95 in 10.0 mi North 13.8 mph - N/A   Overcast
1:53 PM 39.0 °F 30.6 °F 33.1 °F 79% 29.97 in 10.0 mi North 15.0 mph - 0.00 in Rain Light Rain
2:53 PM 39.0 °F 31.4 °F 33.1 °F 79% 29.99 in 10.0 mi North 12.7 mph - 0.01 in   Overcast
3:53 PM 37.9 °F 30.5 °F 33.1 °F 83% 30.00 in 10.0 mi North 11.5 mph - 0.00 in   Overcast
4:35 PM 39.2 °F 32.5 °F 33.8 °F 81% 30.01 in 10.0 mi North 10.4 mph - 0.00 in Rain Light Rain
4:53 PM 37.9 °F 30.5 °F 33.1 °F 83% 30.02 in 10.0 mi North 11.5 mph 19.6 mph 0.00 in Rain Light Rain
5:53 PM 37.0 °F 29.8 °F 34.0 °F 89% 30.04 in 10.0 mi North 10.4 mph - 0.00 in Rain Light Rain
6:53 PM 36.0 °F 27.5 °F 33.1 °F 89% 30.07 in 10.0 mi NNE 12.7 mph - 0.00 in   Overcast
7:53 PM 35.1 °F 26.4 °F 32.0 °F 89% 30.09 in 10.0 mi NNE 12.7 mph - N/A   Overcast
8:13 PM 35.6 °F 26.6 °F 32.0 °F 87% 30.08 in 10.0 mi NNE 13.8 mph 20.7 mph 0.00 in Rain Light Rain
8:53 PM 34.0 °F 24.6 °F 32.0 °F 92% 30.10 in 8.0 mi NNE 13.8 mph - 0.00 in Rain , Snow Light Rain
9:53 PM 33.1 °F 24.4 °F 32.0 °F 96% 30.12 in 8.0 mi NNE 11.5 mph - 0.00 in Snow Light Snow
10:10 PM 33.8 °F 24.8 °F 32.0 °F 93% 30.11 in 7.0 mi NNE 12.7 mph - 0.00 in Snow Light Snow
10:53 PM 33.1 °F 25.5 °F 32.0 °F 96% 30.14 in 8.0 mi NE 9.2 mph - 0.00 in Snow Light Snow
11:29 PM 33.8 °F 25.8 °F 32.0 °F 93% 30.14 in 7.0 mi NE 10.4 mph - 0.00 in Snow Light Snow
11:53 PM 34.0 °F 25.0 °F 32.0 °F 92% 30.16 in 9.0 mi NE 12.7 mph - 0.00 in Snow Light Snow